owner,sensor,date,latitude,longitude,vertical_datum,direction_of_sea_water_velocity,sea_water_speed,upward_sea_water_velocity,qcFlag 
TABS,ioos:station:wmo:42044:1,2006-04-01T00:00:00Z,26.1914,-97.0507,2.0,14.88835835,25.60974229,-99999.0,'11111222,11111222,99999999' 
TABS,ioos:station:wmo:42044:1,2006-04-01T00:30:00Z,26.1914,-97.0507,2.0,7.886335714,23.24988172,-99999.0,'11111222,11111222,99999999' 
TABS,ioos:station:wmo:42044:1,2006-04-01T01:00:00Z,26.1914,-97.0507,2.0,344.5169035,27.08288943,-99999.0,'11111222,11111222,99999999' 
TABS,ioos:station:wmo:42044:1,2006-04-01T01:30:00Z,26.1914,-97.0507,2.0,339.3471775,33.17184951,-99999.0,'11111222,11111222,99999999' 
TABS,ioos:station:wmo:42044:1,2006-04-01T02:00:00Z,26.1914,-97.0507,2.0,341.1748805,37.12600167,-99999.0,'11111222,11111222,99999999' 
TABS,ioos:station:wmo:42044:1,2006-04-01T02:30:00Z,26.1914,-97.0507,2.0,343.3190602,36.47498458,-99999.0,'11111222,11111222,99999999' 
TABS,ioos:station:wmo:42044:1,2006-04-01T03:00:00Z,26.1914,-97.0507,2.0,341.9244453,37.83739552,-99999.0,'11111222,11111222,99999999' 
TABS,ioos:station:wmo:42044:1,2006-04-01T03:30:00Z,26.1914,-97.0507,2.0,345.0150242,39.09968031,-99999.0,'11111222,11111222,99999999' 
TABS,ioos:station:wmo:42044:1,2006-04-01T04:00:00Z,26.1914,-97.0507,2.0,346.1665575,39.10426319,-99999.0,'11111222,11111222,99999999' 
TABS,ioos:station:wmo:42044:1,2006-04-01T04:30:00Z,26.1914,-97.0507,2.0,345.3371505,41.67739075,-99999.0,'11111222,11111222,99999999' 
TABS,ioos:station:wmo:42044:1,2006-04-01T05:00:00Z,26.1914,-97.0507,2.0,350.2309201,38.66062079,-99999.0,'11111222,11111222,99999999' 
TABS,ioos:station:wmo:42044:1,2006-04-01T05:30:00Z,26.1914,-97.0507,2.0,349.9814066,39.77656722,-99999.0,'11111222,11111222,99999999' 
TABS,ioos:station:wmo:42044:1,2006-04-01T06:00:00Z,26.1914,-97.0507,2.0,350.9520258,39.80532251,-99999.0,'11111222,11111222,99999999' 
TABS,ioos:station:wmo:42044:1,2006-04-01T06:30:00Z,26.1914,-97.0507,2.0,357.2652846,37.93320709,-99999.0,'11111222,11111222,99999999' 
TABS,ioos:station:wmo:42044:1,2006-04-01T07:00:00Z,26.1914,-97.0507,2.0,1.466323724,38.30253908,-99999.0,'11111222,11111222,99999999' 
TABS,ioos:station:wmo:42044:1,2006-04-01T07:30:00Z,26.1914,-97.0507,2.0,3.977621609,35.46541978,-99999.0,'11111222,11111222,99999999' 
TABS,ioos:station:wmo:42044:1,2006-04-01T08:00:00Z,26.1914,-97.0507,2.0,8.751189794,36.01930593,-99999.0,'11111222,11111222,99999999' 
TABS,ioos:station:wmo:42044:1,2006-04-01T08:30:00Z,26.1914,-97.0507,2.0,10.42339172,36.37017047,-99999.0,'11111222,11111222,99999999' 
TABS,ioos:station:wmo:42044:1,2006-04-01T09:00:00Z,26.1914,-97.0507,2.0,11.46654191,35.91684285,-99999.0,'11111222,11111222,99999999' 
TABS,ioos:station:wmo:42044:1,2006-04-01T09:30:00Z,26.1914,-97.0507,2.0,14.07355373,37.4232548,-99999.0,'11111222,11111222,99999999' 
TABS,ioos:station:wmo:42044:1,2006-04-01T10:00:00Z,26.1914,-97.0507,2.0,15.17927712,36.35847219,-99999.0,'11111222,11111222,99999999' 
TABS,ioos:station:wmo:42044:1,2006-04-01T10:30:00Z,26.1914,-97.0507,2.0,23.7273189,37.57624782,-99999.0,'11111222,11111222,99999999' 
TABS,ioos:station:wmo:42044:1,2006-04-01T11:00:00Z,26.1914,-97.0507,2.0,26.41293354,35.33894311,-99999.0,'11111222,11111222,99999999' 
TABS,ioos:station:wmo:42044:1,2006-04-01T11:30:00Z,26.1914,-97.0507,2.0,29.03034403,34.20771989,-99999.0,'11111222,11111222,99999999' 
TABS,ioos:station:wmo:42044:1,2006-04-01T12:00:00Z,26.1914,-97.0507,2.0,29.27216057,32.76365059,-99999.0,'11111222,11111222,99999999' 
TABS,ioos:station:wmo:42044:1,2006-04-01T12:30:00Z,26.1914,-97.0507,2.0,30.53137104,33.16877146,-99999.0,'11111222,11111222,99999999' 
TABS,ioos:station:wmo:42044:1,2006-04-01T13:00:00Z,26.1914,-97.0507,2.0,32.69721325,32.48812244,-99999.0,'11111222,11111222,99999999' 
TABS,ioos:station:wmo:42044:1,2006-04-01T13:30:00Z,26.1914,-97.0507,2.0,33.91932206,32.59721767,-99999.0,'11111222,11111222,99999999' 
TABS,ioos:station:wmo:42044:1,2006-04-01T14:00:00Z,26.1914,-97.0507,2.0,34.01196849,31.60731561,-99999.0,'11111222,11111222,99999999' 
TABS,ioos:station:wmo:42044:1,2006-04-01T14:30:00Z,26.1914,-97.0507,2.0,34.78926142,31.23259355,-99999.0,'11111222,11111222,99999999' 
TABS,ioos:station:wmo:42044:1,2006-04-01T15:00:00Z,26.1914,-97.0507,2.0,31.34337488,29.26001538,-99999.0,'11111222,11111222,99999999' 
TABS,ioos:station:wmo:42044:1,2006-04-01T15:30:00Z,26.1914,-97.0507,2.0,30.89644036,29.13419983,-99999.0,'11111222,11111222,99999999' 
TABS,ioos:station:wmo:42044:1,2006-04-01T16:00:00Z,26.1914,-97.0507,2.0,27.67868569,29.68717231,-99999.0,'11111222,11111222,99999999' 
TABS,ioos:station:wmo:42044:1,2006-04-01T16:30:00Z,26.1914,-97.0507,2.0,24.18673189,28.55682931,-99999.0,'11111222,11111222,99999999' 
TABS,ioos:station:wmo:42044:1,2006-04-01T17:00:00Z,26.1914,-97.0507,2.0,20.74950747,29.83512862,-99999.0,'11111222,11111222,99999999' 
TABS,ioos:station:wmo:42044:1,2006-04-01T17:30:00Z,26.1914,-97.0507,2.0,20.80190135,27.56695486,-99999.0,'11111222,11111222,99999999' 
TABS,ioos:station:wmo:42044:1,2006-04-01T18:00:00Z,26.1914,-97.0507,2.0,17.52771057,29.15353152,-99999.0,'11111222,11111222,99999999' 
TABS,ioos:station:wmo:42044:1,2006-04-01T18:30:00Z,26.1914,-97.0507,2.0,13.60310483,30.14561494,-99999.0,'11111222,11111222,99999999' 
TABS,ioos:station:wmo:42044:1,2006-04-01T19:00:00Z,26.1914,-97.0507,2.0,17.25895024,30.50343259,-99999.0,'11111222,11111222,99999999' 
TABS,ioos:station:wmo:42044:1,2006-04-01T19:30:00Z,26.1914,-97.0507,2.0,14.08114139,31.07367374,-99999.0,'11111222,11111222,99999999' 
TABS,ioos:station:wmo:42044:1,2006-04-01T20:00:00Z,26.1914,-97.0507,2.0,11.35581286,29.50764308,-99999.0,'11111222,11111222,99999999' 
TABS,ioos:station:wmo:42044:1,2006-04-01T20:30:00Z,26.1914,-97.0507,2.0,4.55965689,28.4299701,-99999.0,'11111222,11111222,99999999' 
TABS,ioos:station:wmo:42044:1,2006-04-01T21:00:00Z,26.1914,-97.0507,2.0,8.379978448,27.58449746,-99999.0,'11111222,11111222,99999999' 
TABS,ioos:station:wmo:42044:1,2006-04-01T21:30:00Z,26.1914,-97.0507,2.0,355.8602804,30.05843143,-99999.0,'11111222,11111222,99999999' 
TABS,ioos:station:wmo:42044:1,2006-04-01T22:00:00Z,26.1914,-97.0507,2.0,354.4494983,31.7388248,-99999.0,'11111222,11111222,99999999' 
TABS,ioos:station:wmo:42044:1,2006-04-01T22:30:00Z,26.1914,-97.0507,2.0,343.6447814,34.16244722,-99999.0,'11111222,11111222,99999999' 
TABS,ioos:station:wmo:42044:1,2006-04-01T23:00:00Z,26.1914,-97.0507,2.0,346.9077117,40.79032361,-99999.0,'11111222,11111222,99999999' 
TABS,ioos:station:wmo:42044:1,2006-04-01T23:30:00Z,26.1914,-97.0507,2.0,343.489496,47.74885653,-99999.0,'11111222,11111222,99999999' 
TABS,ioos:station:wmo:42044:1,2006-04-02T00:00:00Z,26.1914,-97.0507,2.0,343.8749185,47.23853088,-99999.0,'11111222,11111222,99999999' 
TABS,ioos:station:wmo:42044:1,2006-04-02T00:30:00Z,26.1914,-97.0507,2.0,346.9933224,48.87396444,-99999.0,'11111222,11111222,99999999' 
TABS,ioos:station:wmo:42044:1,2006-04-02T01:00:00Z,26.1914,-97.0507,2.0,350.0095718,45.99750428,-99999.0,'11111222,11111222,99999999' 
TABS,ioos:station:wmo:42044:1,2006-04-02T01:30:00Z,26.1914,-97.0507,2.0,349.1191979,48.20669663,-99999.0,'11111222,11111222,99999999' 
TABS,ioos:station:wmo:42044:1,2006-04-02T02:00:00Z,26.1914,-97.0507,2.0,353.0566729,44.2545749,-99999.0,'11111222,11111222,99999999' 
TABS,ioos:station:wmo:42044:1,2006-04-02T02:30:00Z,26.1914,-97.0507,2.0,349.9888236,48.37662349,-99999.0,'11111222,11111222,99999999' 
TABS,ioos:station:wmo:42044:1,2006-04-02T03:00:00Z,26.1914,-97.0507,2.0,356.7869451,49.4176942,-99999.0,'11111222,11111222,99999999' 
TABS,ioos:station:wmo:42044:1,2006-04-02T03:30:00Z,26.1914,-97.0507,2.0,356.9545784,49.49991717,-99999.0,'11111222,11111222,99999999' 
TABS,ioos:station:wmo:42044:1,2006-04-02T04:00:00Z,26.1914,-97.0507,2.0,357.9620796,44.98846074,-99999.0,'11111222,11111222,99999999' 
TABS,ioos:station:wmo:42044:1,2006-04-02T04:30:00Z,26.1914,-97.0507,2.0,2.665772301,46.6604865,-99999.0,'11111222,11111222,99999999' 
TABS,ioos:station:wmo:42044:1,2006-04-02T05:00:00Z,26.1914,-97.0507,2.0,0.046735536,49.26001624,-99999.0,'11111222,11111222,99999999' 
TABS,ioos:station:wmo:42044:1,2006-04-02T05:30:00Z,26.1914,-97.0507,2.0,3.583836953,48.95572694,-99999.0,'11111222,11111222,99999999' 
TABS,ioos:station:wmo:42044:1,2006-04-02T06:00:00Z,26.1914,-97.0507,2.0,2.479741713,49.69652905,-99999.0,'11111222,11111222,99999999' 
TABS,ioos:station:wmo:42044:1,2006-04-02T06:30:00Z,26.1914,-97.0507,2.0,3.381770688,48.99530794,-99999.0,'11111222,11111222,99999999' 
TABS,ioos:station:wmo:42044:1,2006-04-02T07:00:00Z,26.1914,-97.0507,2.0,7.465542192,49.48949181,-99999.0,'11111222,11111222,99999999' 
TABS,ioos:station:wmo:42044:1,2006-04-02T07:30:00Z,26.1914,-97.0507,2.0,8.161809555,51.42081291,-99999.0,'11111222,11111222,99999999' 
TABS,ioos:station:wmo:42044:1,2006-04-02T08:00:00Z,26.1914,-97.0507,2.0,8.810472346,50.27317774,-99999.0,'11111222,11111222,99999999' 
TABS,ioos:station:wmo:42044:1,2006-04-02T08:30:00Z,26.1914,-97.0507,2.0,12.90569561,49.16184293,-99999.0,'11111222,11111222,99999999' 
TABS,ioos:station:wmo:42044:1,2006-04-02T09:00:00Z,26.1914,-97.0507,2.0,11.93867111,47.37470317,-99999.0,'11111222,11111222,99999999' 
TABS,ioos:station:wmo:42044:1,2006-04-02T09:30:00Z,26.1914,-97.0507,2.0,15.69345383,47.13710746,-99999.0,'11111222,11111222,99999999' 
TABS,ioos:station:wmo:42044:1,2006-04-02T10:00:00Z,26.1914,-97.0507,2.0,19.20978963,48.41573401,-99999.0,'11111222,11111222,99999999' 
TABS,ioos:station:wmo:42044:1,2006-04-02T10:30:00Z,26.1914,-97.0507,2.0,18.12285066,48.15904173,-99999.0,'11111222,11111222,99999999' 
TABS,ioos:station:wmo:42044:1,2006-04-02T11:00:00Z,26.1914,-97.0507,2.0,20.41205267,49.77541662,-99999.0,'11111222,11111222,99999999' 
TABS,ioos:station:wmo:42044:1,2006-04-02T11:30:00Z,26.1914,-97.0507,2.0,20.49928529,50.65777433,-99999.0,'11111222,11111222,99999999' 
TABS,ioos:station:wmo:42044:1,2006-04-02T12:00:00Z,26.1914,-97.0507,2.0,23.12849205,51.40125485,-99999.0,'11111222,11111222,99999999' 
TABS,ioos:station:wmo:42044:1,2006-04-02T12:30:00Z,26.1914,-97.0507,2.0,25.91818699,51.08846641,-99999.0,'11111222,11111222,99999999' 
TABS,ioos:station:wmo:42044:1,2006-04-02T13:00:00Z,26.1914,-97.0507,2.0,28.11876881,51.1353107,-99999.0,'11111222,11111222,99999999' 
TABS,ioos:station:wmo:42044:1,2006-04-02T13:30:00Z,26.1914,-97.0507,2.0,28.15278148,50.04004896,-99999.0,'11111222,11111222,99999999' 
TABS,ioos:station:wmo:42044:1,2006-04-02T14:00:00Z,26.1914,-97.0507,2.0,28.78894817,47.94609995,-99999.0,'11111222,11111222,99999999' 
TABS,ioos:station:wmo:42044:1,2006-04-02T14:30:00Z,26.1914,-97.0507,2.0,29.71978248,47.86624907,-99999.0,'11111222,11111222,99999999' 
TABS,ioos:station:wmo:42044:1,2006-04-02T15:00:00Z,26.1914,-97.0507,2.0,33.09350083,45.2743117,-99999.0,'11111222,11111222,99999999' 
TABS,ioos:station:wmo:42044:1,2006-04-02T15:30:00Z,26.1914,-97.0507,2.0,31.3061039,43.07092291,-99999.0,'11111222,11111222,99999999' 
TABS,ioos:station:wmo:42044:1,2006-04-02T16:00:00Z,26.1914,-97.0507,2.0,33.18443205,44.61627506,-99999.0,'11111222,11111222,99999999' 
TABS,ioos:station:wmo:42044:1,2006-04-02T16:30:00Z,26.1914,-97.0507,2.0,28.85221513,37.09461012,-99999.0,'11111222,11111222,99999999' 
TABS,ioos:station:wmo:42044:1,2006-04-02T17:00:00Z,26.1914,-97.0507,2.0,27.06419885,39.53965351,-99999.0,'11111222,11111222,99999999' 
TABS,ioos:station:wmo:42044:1,2006-04-02T17:30:00Z,26.1914,-97.0507,2.0,24.4244888,38.67071502,-99999.0,'11111222,11111222,99999999' 
TABS,ioos:station:wmo:42044:1,2006-04-02T18:00:00Z,26.1914,-97.0507,2.0,23.79777559,37.05013495,-99999.0,'11111222,11111222,99999999' 
TABS,ioos:station:wmo:42044:1,2006-04-02T18:30:00Z,26.1914,-97.0507,2.0,28.11299315,38.41177424,-99999.0,'11111222,11111222,99999999' 
TABS,ioos:station:wmo:42044:1,2006-04-02T19:00:00Z,26.1914,-97.0507,2.0,23.98135931,37.29975871,-99999.0,'11111222,11111222,99999999' 
TABS,ioos:station:wmo:42044:1,2006-04-02T19:30:00Z,26.1914,-97.0507,2.0,21.02798538,33.97234464,-99999.0,'11111222,11111222,99999999' 
TABS,ioos:station:wmo:42044:1,2006-04-02T20:00:00Z,26.1914,-97.0507,2.0,24.19077997,35.19014635,-99999.0,'11111222,11111222,99999999' 
TABS,ioos:station:wmo:42044:1,2006-04-02T20:30:00Z,26.1914,-97.0507,2.0,21.02010664,35.12754048,-99999.0,'11111222,11111222,99999999' 
TABS,ioos:station:wmo:42044:1,2006-04-02T21:00:00Z,26.1914,-97.0507,2.0,19.8385812,36.53843045,-99999.0,'11111222,11111222,99999999' 
TABS,ioos:station:wmo:42044:1,2006-04-02T21:30:00Z,26.1914,-97.0507,2.0,17.1676352,37.7415315,-99999.0,'11111222,11111222,99999999' 
TABS,ioos:station:wmo:42044:1,2006-04-02T22:00:00Z,26.1914,-97.0507,2.0,18.82126463,37.53708833,-99999.0,'11111222,11111222,99999999' 
TABS,ioos:station:wmo:42044:1,2006-04-02T22:30:00Z,26.1914,-97.0507,2.0,12.90417013,37.43540704,-99999.0,'11111222,11111222,99999999' 
TABS,ioos:station:wmo:42044:1,2006-04-02T23:00:00Z,26.1914,-97.0507,2.0,11.14155835,39.3312611,-99999.0,'11111222,11111222,99999999' 
TABS,ioos:station:wmo:42044:1,2006-04-02T23:30:00Z,26.1914,-97.0507,2.0,12.95061973,40.8285023,-99999.0,'11111222,11111222,99999999' 
TABS,ioos:station:wmo:42044:1,2006-04-03T00:00:00Z,26.1914,-97.0507,2.0,12.02006714,36.87854796,-99999.0,'11111222,11111222,99999999' 
TABS,ioos:station:wmo:42044:1,2006-04-03T00:30:00Z,26.1914,-97.0507,2.0,7.204947347,40.10667027,-99999.0,'11111222,11111222,99999999' 
TABS,ioos:station:wmo:42044:1,2006-04-03T01:00:00Z,26.1914,-97.0507,2.0,5.283289107,36.27409544,-99999.0,'11111222,11111222,99999999' 
TABS,ioos:station:wmo:42044:1,2006-04-03T01:30:00Z,26.1914,-97.0507,2.0,9.654050863,37.86623034,-99999.0,'11111222,11111222,99999999' 
TABS,ioos:station:wmo:42044:1,2006-04-03T02:00:00Z,26.1914,-97.0507,2.0,5.587784256,36.15177451,-99999.0,'11111222,11111222,99999999' 
TABS,ioos:station:wmo:42044:1,2006-04-03T02:30:00Z,26.1914,-97.0507,2.0,8.361912756,36.03304178,-99999.0,'11111222,11111222,99999999' 
TABS,ioos:station:wmo:42044:1,2006-04-03T03:00:00Z,26.1914,-97.0507,2.0,2.115882045,35.21400432,-99999.0,'11111222,11111222,99999999' 
TABS,ioos:station:wmo:42044:1,2006-04-03T03:30:00Z,26.1914,-97.0507,2.0,2.386829235,35.06041215,-99999.0,'11111222,11111222,99999999' 
TABS,ioos:station:wmo:42044:1,2006-04-03T04:00:00Z,26.1914,-97.0507,2.0,358.3714705,33.42350371,-99999.0,'11111222,11111222,99999999' 
TABS,ioos:station:wmo:42044:1,2006-04-03T04:30:00Z,26.1914,-97.0507,2.0,358.0633326,33.72927067,-99999.0,'11111222,11111222,99999999' 
TABS,ioos:station:wmo:42044:1,2006-04-03T05:00:00Z,26.1914,-97.0507,2.0,356.381997,33.27632942,-99999.0,'11111222,11111222,99999999' 
TABS,ioos:station:wmo:42044:1,2006-04-03T05:30:00Z,26.1914,-97.0507,2.0,349.1802122,36.01019994,-99999.0,'11111222,11111222,99999999' 
TABS,ioos:station:wmo:42044:1,2006-04-03T06:00:00Z,26.1914,-97.0507,2.0,352.0201154,33.49434878,-99999.0,'11111222,11111222,99999999' 
TABS,ioos:station:wmo:42044:1,2006-04-03T06:30:00Z,26.1914,-97.0507,2.0,349.1425299,35.7805422,-99999.0,'11111222,11111222,99999999' 
TABS,ioos:station:wmo:42044:1,2006-04-03T07:00:00Z,26.1914,-97.0507,2.0,343.194102,35.93483129,-99999.0,'11111222,11111222,99999999' 
TABS,ioos:station:wmo:42044:1,2006-04-03T07:30:00Z,26.1914,-97.0507,2.0,341.6303622,36.20494027,-99999.0,'11111222,11111222,99999999' 
TABS,ioos:station:wmo:42044:1,2006-04-03T08:00:00Z,26.1914,-97.0507,2.0,339.0543787,36.8126337,-99999.0,'11111222,11111222,99999999' 
TABS,ioos:station:wmo:42044:1,2006-04-03T08:30:00Z,26.1914,-97.0507,2.0,342.7640811,35.67197499,-99999.0,'11111222,11111222,99999999' 
TABS,ioos:station:wmo:42044:1,2006-04-03T09:00:00Z,26.1914,-97.0507,2.0,345.3362248,35.19645721,-99999.0,'11111222,11111222,99999999' 
TABS,ioos:station:wmo:42044:1,2006-04-03T09:30:00Z,26.1914,-97.0507,2.0,346.817562,35.16671722,-99999.0,'11111222,11111222,99999999' 
TABS,ioos:station:wmo:42044:1,2006-04-03T10:00:00Z,26.1914,-97.0507,2.0,344.8584469,31.92848258,-99999.0,'11111222,11111222,99999999' 
TABS,ioos:station:wmo:42044:1,2006-04-03T10:30:00Z,26.1914,-97.0507,2.0,354.1594537,35.47416243,-99999.0,'11111222,11111222,99999999' 
TABS,ioos:station:wmo:42044:1,2006-04-03T11:00:00Z,26.1914,-97.0507,2.0,352.0994395,37.10218996,-99999.0,'11111222,11111222,99999999' 
TABS,ioos:station:wmo:42044:1,2006-04-03T11:30:00Z,26.1914,-97.0507,2.0,355.514415,37.33436487,-99999.0,'11111222,11111222,99999999' 
TABS,ioos:station:wmo:42044:1,2006-04-03T12:00:00Z,26.1914,-97.0507,2.0,0.646761214,38.99248261,-99999.0,'11111222,11111222,99999999' 
TABS,ioos:station:wmo:42044:1,2006-04-03T12:30:00Z,26.1914,-97.0507,2.0,3.733102831,41.31765966,-99999.0,'11111222,11111222,99999999' 
TABS,ioos:station:wmo:42044:1,2006-04-03T13:00:00Z,26.1914,-97.0507,2.0,7.363977467,40.18140117,-99999.0,'11111222,11111222,99999999' 
TABS,ioos:station:wmo:42044:1,2006-04-03T13:30:00Z,26.1914,-97.0507,2.0,5.430961889,42.58113432,-99999.0,'11111222,11111222,99999999' 
TABS,ioos:station:wmo:42044:1,2006-04-03T14:00:00Z,26.1914,-97.0507,2.0,8.843861175,40.65330737,-99999.0,'11111222,11111222,99999999' 
TABS,ioos:station:wmo:42044:1,2006-04-03T14:30:00Z,26.1914,-97.0507,2.0,8.957057595,39.69403608,-99999.0,'11111222,11111222,99999999' 
TABS,ioos:station:wmo:42044:1,2006-04-03T15:00:00Z,26.1914,-97.0507,2.0,11.30458922,40.65879733,-99999.0,'11111222,11111222,99999999' 
TABS,ioos:station:wmo:42044:1,2006-04-03T15:30:00Z,26.1914,-97.0507,2.0,13.28333668,40.78103726,-99999.0,'11111222,11111222,99999999' 
TABS,ioos:station:wmo:42044:1,2006-04-03T16:00:00Z,26.1914,-97.0507,2.0,13.64621052,39.88590854,-99999.0,'11111222,11111222,99999999' 
TABS,ioos:station:wmo:42044:1,2006-04-03T16:30:00Z,26.1914,-97.0507,2.0,11.24313671,40.26267006,-99999.0,'11111222,11111222,99999999' 
TABS,ioos:station:wmo:42044:1,2006-04-03T17:00:00Z,26.1914,-97.0507,2.0,17.07318497,41.11173677,-99999.0,'11111222,11111222,99999999' 
TABS,ioos:station:wmo:42044:1,2006-04-03T17:30:00Z,26.1914,-97.0507,2.0,11.02031652,39.54928571,-99999.0,'11111222,11111222,99999999' 
TABS,ioos:station:wmo:42044:1,2006-04-03T18:00:00Z,26.1914,-97.0507,2.0,9.274707949,42.1307548,-99999.0,'11111222,11111222,99999999' 
TABS,ioos:station:wmo:42044:1,2006-04-03T18:30:00Z,26.1914,-97.0507,2.0,6.91231939,38.38901536,-99999.0,'11111222,11111222,99999999' 
TABS,ioos:station:wmo:42044:1,2006-04-03T19:00:00Z,26.1914,-97.0507,2.0,6.747794547,36.34172533,-99999.0,'11111222,11111222,99999999' 
TABS,ioos:station:wmo:42044:1,2006-04-03T19:30:00Z,26.1914,-97.0507,2.0,2.798972384,39.11665886,-99999.0,'11111222,11111222,99999999' 
TABS,ioos:station:wmo:42044:1,2006-04-03T20:00:00Z,26.1914,-97.0507,2.0,2.653668622,36.28890877,-99999.0,'11111222,11111222,99999999' 
TABS,ioos:station:wmo:42044:1,2006-04-03T20:30:00Z,26.1914,-97.0507,2.0,4.159843025,39.70458916,-99999.0,'11111222,11111222,99999999' 
TABS,ioos:station:wmo:42044:1,2006-04-03T21:00:00Z,26.1914,-97.0507,2.0,6.547030145,34.29362915,-99999.0,'11111222,11111222,99999999' 
TABS,ioos:station:wmo:42044:1,2006-04-03T21:30:00Z,26.1914,-97.0507,2.0,8.711374719,36.11662913,-99999.0,'11111222,11111222,99999999' 
TABS,ioos:station:wmo:42044:1,2006-04-03T22:00:00Z,26.1914,-97.0507,2.0,7.317578617,35.09582596,-99999.0,'11111222,11111222,99999999' 
TABS,ioos:station:wmo:42044:1,2006-04-03T22:30:00Z,26.1914,-97.0507,2.0,3.89866921,32.06419343,-99999.0,'11111222,11111222,99999999' 
TABS,ioos:station:wmo:42044:1,2006-04-03T23:00:00Z,26.1914,-97.0507,2.0,5.08351098,30.81118303,-99999.0,'11111222,11111222,99999999' 
TABS,ioos:station:wmo:42044:1,2006-04-03T23:30:00Z,26.1914,-97.0507,2.0,3.937497674,32.47665161,-99999.0,'11111222,11111222,99999999' 
TABS,ioos:station:wmo:42044:1,2006-04-04T00:00:00Z,26.1914,-97.0507,2.0,3.690376501,30.45313941,-99999.0,'11111222,11111222,99999999' 
TABS,ioos:station:wmo:42044:1,2006-04-04T00:30:00Z,26.1914,-97.0507,2.0,3.898835466,27.94466675,-99999.0,'11111222,11111222,99999999' 
TABS,ioos:station:wmo:42044:1,2006-04-04T01:00:00Z,26.1914,-97.0507,2.0,4.108756587,28.47317334,-99999.0,'11111222,11111222,99999999' 
TABS,ioos:station:wmo:42044:1,2006-04-04T01:30:00Z,26.1914,-97.0507,2.0,4.681625296,27.20074448,-99999.0,'11111222,11111222,99999999' 
TABS,ioos:station:wmo:42044:1,2006-04-04T02:00:00Z,26.1914,-97.0507,2.0,359.2969779,27.70208656,-99999.0,'11111222,11144222,99999999' 
TABS,ioos:station:wmo:42044:1,2006-04-04T02:30:00Z,26.1914,-97.0507,2.0,354.9882445,26.44109869,-99999.0,'11111222,11111222,99999999' 
TABS,ioos:station:wmo:42044:1,2006-04-04T03:00:00Z,26.1914,-97.0507,2.0,346.6385777,24.10243556,-99999.0,'11111222,11111222,99999999' 
TABS,ioos:station:wmo:42044:1,2006-04-04T03:30:00Z,26.1914,-97.0507,2.0,344.7135828,23.89544936,-99999.0,'11111222,11111222,99999999' 
TABS,ioos:station:wmo:42044:1,2006-04-04T04:00:00Z,26.1914,-97.0507,2.0,342.7177919,25.31282876,-99999.0,'11111222,11111222,99999999' 
TABS,ioos:station:wmo:42044:1,2006-04-04T04:30:00Z,26.1914,-97.0507,2.0,337.2986716,25.88541095,-99999.0,'11111222,11111222,99999999' 
TABS,ioos:station:wmo:42044:1,2006-04-04T05:00:00Z,26.1914,-97.0507,2.0,331.8282537,24.71827259,-99999.0,'11111222,11111222,99999999' 
TABS,ioos:station:wmo:42044:1,2006-04-04T05:30:00Z,26.1914,-97.0507,2.0,326.8390896,23.43708173,-99999.0,'11111222,11111222,99999999' 
TABS,ioos:station:wmo:42044:1,2006-04-04T06:00:00Z,26.1914,-97.0507,2.0,335.1295024,25.1086041,-99999.0,'11111222,11111222,99999999' 
TABS,ioos:station:wmo:42044:1,2006-04-04T06:30:00Z,26.1914,-97.0507,2.0,331.9496499,24.66764885,-99999.0,'11111222,11111222,99999999' 
TABS,ioos:station:wmo:42044:1,2006-04-04T07:00:00Z,26.1914,-97.0507,2.0,332.1756667,27.46555115,-99999.0,'11111222,11111222,99999999' 
TABS,ioos:station:wmo:42044:1,2006-04-04T07:30:00Z,26.1914,-97.0507,2.0,331.9843286,28.61295511,-99999.0,'11111222,11111222,99999999' 
TABS,ioos:station:wmo:42044:1,2006-04-04T08:00:00Z,26.1914,-97.0507,2.0,325.9565835,28.75897947,-99999.0,'11111222,11111222,99999999' 
TABS,ioos:station:wmo:42044:1,2006-04-04T08:30:00Z,26.1914,-97.0507,2.0,332.3067261,29.97359671,-99999.0,'11111222,11111222,99999999' 
TABS,ioos:station:wmo:42044:1,2006-04-04T09:00:00Z,26.1914,-97.0507,2.0,336.4286139,31.25815893,-99999.0,'11111222,11111222,99999999' 
TABS,ioos:station:wmo:42044:1,2006-04-04T09:30:00Z,26.1914,-97.0507,2.0,336.2238076,31.89726791,-99999.0,'11111222,11111222,99999999' 
TABS,ioos:station:wmo:42044:1,2006-04-04T10:00:00Z,26.1914,-97.0507,2.0,338.1468176,36.8048312,-99999.0,'11111222,11111222,99999999' 
TABS,ioos:station:wmo:42044:1,2006-04-04T10:30:00Z,26.1914,-97.0507,2.0,335.1993396,34.13857788,-99999.0,'11111222,11111222,99999999' 
TABS,ioos:station:wmo:42044:1,2006-04-04T11:00:00Z,26.1914,-97.0507,2.0,337.9357424,33.96774941,-99999.0,'11111222,11111222,99999999' 
TABS,ioos:station:wmo:42044:1,2006-04-04T11:30:00Z,26.1914,-97.0507,2.0,335.7878624,32.35634405,-99999.0,'11111222,11111222,99999999' 
TABS,ioos:station:wmo:42044:1,2006-04-04T12:00:00Z,26.1914,-97.0507,2.0,336.8148094,34.36552051,-99999.0,'11111222,11111222,99999999' 
TABS,ioos:station:wmo:42044:1,2006-04-04T12:30:00Z,26.1914,-97.0507,2.0,332.3025877,35.52017173,-99999.0,'11111222,11111222,99999999' 
TABS,ioos:station:wmo:42044:1,2006-04-04T13:00:00Z,26.1914,-97.0507,2.0,335.3868736,34.14220262,-99999.0,'11111222,11111222,99999999' 
TABS,ioos:station:wmo:42044:1,2006-04-04T13:30:00Z,26.1914,-97.0507,2.0,343.1216053,33.64956018,-99999.0,'11111222,11111222,99999999' 
TABS,ioos:station:wmo:42044:1,2006-04-04T14:00:00Z,26.1914,-97.0507,2.0,345.2304622,34.47926478,-99999.0,'11111222,11111222,99999999' 
TABS,ioos:station:wmo:42044:1,2006-04-04T14:30:00Z,26.1914,-97.0507,2.0,350.4084188,42.18981986,-99999.0,'11111222,11111222,99999999' 
TABS,ioos:station:wmo:42044:1,2006-04-04T15:00:00Z,26.1914,-97.0507,2.0,350.2324338,41.31898474,-99999.0,'11111222,11111222,99999999' 
TABS,ioos:station:wmo:42044:1,2006-04-04T15:30:00Z,26.1914,-97.0507,2.0,349.3704751,41.79725469,-99999.0,'11111222,11111222,99999999' 
TABS,ioos:station:wmo:42044:1,2006-04-04T16:00:00Z,26.1914,-97.0507,2.0,353.8454284,45.04967258,-99999.0,'11111222,11111222,99999999' 